Weather History for Karlovy Vary, Czech Republic

Change the Weather History Date:

Monday, November 5, 2012

  Actual Average (EDQM) Record (EDQM)
Temperature  
Mean Temperature 40 °F -  
Max Temperature 44 °F 43 °F 55 °F (2008)
Min Temperature 37 °F 34 °F 26 °F (2002)
Degree Days  
Heating Degree Days 24    
Moisture  
Dew Point 38 °F    
Average Humidity 90    
Maximum Humidity 100    
Minimum Humidity 76    
Precipitation  
Precipitation 0.00 in - - ()
Sea Level Pressure  
Sea Level Pressure 29.57 in    
Wind  
Wind Speed 7 mph ()    
Max Wind Speed 15 mph    
Max Gust Speed -    
Visibility 6.2 miles    
Events Rain    
Averages and records for this station are not official NWS values.
T = Trace of Precipitation, MM = Missing Value Source: Averaged Metar Reports

Daily Weather History Graph

Daily Weather History Graph

Search for Another Location

Airport:

Trip Planner

Search our weather history database for the weather conditions in past years. The results will help you decide how hot, cold, wet, or windy it might be!

Date:

Astronomy

Nov. 05, 2012 Rise Set
Actual Time 7:05 AM CET 4:37 PM CET
Civil Twilight 6:31 AM CET 5:12 PM CET
Nautical Twilight 5:52 AM CET 5:50 PM CET
Astronomical Twilight 5:14 AM CET 6:28 PM CET
Moon 9:56 PM CET (11/5) 12:18 PM CET (11/5)
Length of Visible Light 10h 41m
Length of Day
9h 31m
Waning Gibbous, 65% of the Moon is Illuminated
Nov 5
Waning Gibbous
Nov 7
Last Quarter
Nov 13
New
Nov 20
First Quarter
Nov 28
Full

Hourly Weather History & Observations

Time (CET) Temp. Windchill Dew Point Humidity Pressure Visibility Wind Dir Wind Speed Gust Speed Precip Events Conditions
12:00 AM 44.6 °F 40.7 °F 41.0 °F 87% 29.50 in 6.2 mi WSW 6.9 mph - N/A Rain Light Rain
1:00 AM 42.8 °F 40.1 °F 41.0 °F 93% 29.50 in - WSW 4.6 mph - N/A   Clear
2:00 AM 42.8 °F 38.6 °F 39.2 °F 87% 29.50 in 6.2 mi WSW 6.9 mph - N/A   Scattered Clouds
3:00 AM 42.8 °F 38.6 °F 39.2 °F 87% 29.53 in 6.2 mi WSW 6.9 mph - N/A Rain Light Rain
4:00 AM 42.8 °F 39.3 °F 39.2 °F 87% 29.50 in 6.2 mi WSW 5.8 mph - N/A   Partly Cloudy
5:00 AM 42.8 °F 39.3 °F 39.2 °F 87% 29.50 in 6.2 mi SW 5.8 mph - N/A   Mostly Cloudy
6:00 AM 41.0 °F 38.0 °F 39.2 °F 93% 29.53 in 6.2 mi SW 4.6 mph - N/A   Mostly Cloudy
7:00 AM 41.0 °F 38.0 °F 39.2 °F 93% 29.53 in 6.2 mi WSW 4.6 mph - N/A   Scattered Clouds
7:30 AM 42.8 °F 38.6 °F 39.2 °F 87% 29.53 in 6.2 mi WSW 6.9 mph - N/A   Mostly Cloudy
8:00 AM 41.0 °F 37.1 °F 39.2 °F 93% 29.53 in 6.2 mi WSW 5.8 mph - N/A   Mostly Cloudy
8:30 AM 42.8 °F 40.1 °F 39.2 °F 87% 29.56 in 6.2 mi SW 4.6 mph - N/A   Mostly Cloudy
9:00 AM 42.8 °F 38.6 °F 39.2 °F 87% 29.53 in 6.2 mi WSW 6.9 mph - N/A   Scattered Clouds
9:30 AM 41.0 °F 35.2 °F 37.4 °F 87% 29.56 in 6.2 mi WSW 9.2 mph - N/A   Scattered Clouds
10:00 AM 41.0 °F 35.8 °F 37.4 °F 87% 29.56 in 6.2 mi WSW 8.1 mph - N/A   Scattered Clouds
10:30 AM 41.0 °F 35.8 °F 37.4 °F 87% 29.56 in 6.2 mi SW 8.1 mph - N/A   Mostly Cloudy
11:00 AM 42.8 °F 38.6 °F 37.4 °F 81% 29.56 in 6.2 mi SW 6.9 mph - N/A   Mostly Cloudy
11:09 AM 42.8 °F 38.0 °F 37.4 °F 81% 29.56 in 6.2 mi SW 8.1 mph - N/A Rain Light Rain
11:30 AM 42.8 °F 36.6 °F 37.4 °F 81% 29.56 in 6.2 mi WSW 11.5 mph - N/A   Scattered Clouds
12:00 PM 42.8 °F 38.0 °F 37.4 °F 81% 29.56 in 6.2 mi SW 8.1 mph - N/A   Mostly Cloudy
12:30 PM 44.6 °F 39.2 °F 37.4 °F 76% 29.56 in 6.2 mi WSW 10.4 mph - N/A Rain Light Rain Showers
1:00 PM 42.8 °F 37.5 °F 37.4 °F 81% 29.56 in 6.2 mi SW 9.2 mph - N/A Rain Light Rain Showers
1:30 PM 42.8 °F 37.5 °F 39.2 °F 87% 29.56 in 6.2 mi WSW 9.2 mph - N/A Rain Light Rain Showers
2:00 PM 42.8 °F 38.6 °F 39.2 °F 87% 29.56 in 6.2 mi WSW 6.9 mph - N/A Rain Light Rain Showers
2:30 PM 42.8 °F 37.5 °F 39.2 °F 87% 29.56 in 6.2 mi West 9.2 mph - N/A Rain Light Rain Showers
2:37 PM 41.0 °F 33.1 °F 37.4 °F 87% 29.56 in 6.2 mi West 15.0 mph - N/A Rain Light Rain Showers
3:00 PM 39.2 °F 33.0 °F 37.4 °F 93% 29.56 in 6.2 mi West 9.2 mph - N/A Rain Light Rain Showers
3:30 PM 39.2 °F 33.6 °F 39.2 °F 100% 29.56 in 6.2 mi West 8.1 mph - N/A   Mostly Cloudy
4:00 PM 39.2 °F 35.0 °F 39.2 °F 100% 29.56 in 6.2 mi WSW 5.8 mph - N/A   Scattered Clouds
4:30 PM 41.0 °F 37.1 °F 39.2 °F 93% 29.56 in 6.2 mi SSW 5.8 mph - N/A   Mostly Cloudy
5:00 PM 41.0 °F 37.1 °F 39.2 °F 93% 29.56 in 6.2 mi SW 5.8 mph - N/A Rain Light Rain Showers
5:30 PM 41.0 °F 35.8 °F 39.2 °F 93% 29.59 in 6.2 mi WSW 8.1 mph - N/A Rain Light Rain Showers
6:00 PM 39.2 °F 32.5 °F 37.4 °F 93% 29.59 in 5.0 mi West 10.4 mph - N/A Rain Light Rain Showers
6:30 PM 39.2 °F 35.0 °F 37.4 °F 93% 29.62 in 6.2 mi WSW 5.8 mph - N/A   Mostly Cloudy
7:00 PM 39.2 °F 35.0 °F 37.4 °F 93% 29.62 in 6.2 mi SW 5.8 mph - N/A   Mostly Cloudy
7:30 PM 39.2 °F 34.2 °F 37.4 °F 93% 29.62 in 6.2 mi WSW 6.9 mph - N/A   Mostly Cloudy
7:53 PM 37.4 °F 30.8 °F 37.4 °F 100% 29.65 in 6.2 mi WSW 9.2 mph - N/A   Overcast
8:00 PM 37.4 °F 30.3 °F 37.4 °F 100% 29.65 in 6.2 mi WSW 10.4 mph - N/A   Mostly Cloudy
8:30 PM 37.4 °F 31.4 °F 35.6 °F 93% 29.65 in 6.2 mi WSW 8.1 mph - N/A   Mostly Cloudy
9:00 PM 37.4 °F 30.8 °F 37.4 °F 100% 29.68 in 6.2 mi WSW 9.2 mph - N/A   Mostly Cloudy
9:30 PM 37.4 °F 30.3 °F 35.6 °F 93% 29.68 in 6.2 mi WSW 10.4 mph - N/A   Mostly Cloudy
10:00 PM 37.4 °F 30.3 °F 35.6 °F 93% 29.68 in 6.2 mi WSW 10.4 mph - N/A   Mostly Cloudy
11:00 PM 39.2 °F 33.6 °F 35.6 °F 87% 29.71 in 6.2 mi WSW 8.1 mph - N/A   Mostly Cloudy